Regional Weather Roundup
Issued by NWS Upton, NY

Home | Current Version | Previous Version | Text Only | Print | Product List | Glossary On
Versions: 1 2 3 4 5 6 7 8 9 10 11 12 13 14 15 16 17 18 19 20 21 22 23 24 25 26 27 28 29 30 31 32 33 34 35 36 37 38 39 40 41 42 43 44 45 46 47 48 49
000
ASUS41 KOKX 302007
RWROKX

REGIONAL WEATHER ROUNDUP
NATIONAL WEATHER SERVICE NEW YORK NY
400 PM EDT MON MAR 30 2015

NOTE: "FAIR" INDICATES FEW OR NO CLOUDS BELOW 12,000 FEET WITH NO
SIGNIFICANT WEATHER AND/OR OBSTRUCTIONS TO VISIBILITY.

NYZ071-072-176-178-NJZ106-104-302100-
NEW YORK CITY METRO AREA


CITY           SKY/WX    TMP DP  RH WIND       PRES   REMARKS
CENTRAL PARK   CLOUDY    52  25  35 W12G20    29.79S
LAGUARDIA APRT CLOUDY    52  27  38 NW22      29.76S
KENNEDY INTL   PTSUNNY   53  26  35 W21G29    29.78S
NEWARK/LIBERTY PTSUNNY   52  27  38 W22G30    29.78S
BRNX BOT. GARD   N/A    N/A N/A N/A W9        29.77S
TETERBORO      CLOUDY    51  27  39 NW21G26   29.77R
$$

NYZ177-179-078>081-302100-
LONG ISLAND NEW YORK

CITY           SKY/WX    TMP DP  RH WIND       PRES   REMARKS
FARMINGDALE    CLOUDY    49  33  54 W7        29.76F
ISLIP          CLOUDY    48  32  53 SW16      29.75F
SHIRLEY        PTSUNNY   47  35  63 S10       29.77F
WESTHAMPTON    FAIR      45  35  68 SW10G17   29.78F
MONTAUK POINT    N/A     43  35  73 SW9G21    29.77F
$$

NYZ052-065-067-302100-
HUDSON VALLEY

CITY           SKY/WX    TMP DP  RH WIND       PRES   REMARKS
WHITE PLAINS   PTSUNNY   49  27  42 W15G24    29.74S
NEWBURGH       PTSUNNY   46  28  49 W14G23    29.76S
MONTGOMERY     CLOUDY    48  27  44 W14G23    29.74S
POUGHKEEPSIE   CLOUDY    49  28  44 W10       29.75S
ALBANY         CLOUDY    44  26  49 W18G25    29.73R
$$

NJZ001-105-106-008-010-013-015-019>022-104-302100-
NEW JERSEY

CITY           SKY/WX    TMP DP  RH WIND       PRES   REMARKS
NEWARK/LIBERTY PTSUNNY   52  27  38 W22G30    29.78S
TETERBORO      CLOUDY    51  27  39 NW21G26   29.77R
CALDWELL       CLOUDY    50  25  37 NW20G32   29.78S
MORRISTOWN     CLOUDY    50  27  40 W14G26    29.79S
SOMERVILLE     CLOUDY    54  27  35 NW16G25   29.77F
SUSSEX         CLOUDY    48  27  44 NW10G16   29.77F
ANDOVER          N/A     47  27  45 W9G20     29.78S
TRENTON        CLOUDY    52  28  39 W14G22    29.79F
MILLVILLE      PTSUNNY   56  30  37 W18G24    29.82F
ATLANTIC CITY  PTSUNNY   56  28  34 W16G24    29.80F
WRIGHTSTOWN    CLOUDY    54  29  37 W13G24    29.77F
TOMS RIVER     PTSUNNY   55  27  33 NW15G28   29.79F
BELMAR         PTSUNNY   54  28  37 W18G28    29.79R
$$

PAZ047>061-062-071-302100-
EASTERN PENNSYLVANIA

CITY           SKY/WX    TMP DP  RH WIND       PRES   REMARKS
PHILADELPHIA   PTSUNNY   56  28  34 NW16G24   29.82F
ALLENTOWN      PTSUNNY   53  25  33 W21G32    29.80F
SCRANTON       CLOUDY    48  27  44 W17       29.77F
$$

CTZ002-004>006-009-010-012-RIZ004-006-007-MAZ004-011-015-302100-
SOUTHERN NEW ENGLAND
 IN CT

CITY           SKY/WX    TMP DP  RH WIND       PRES   REMARKS
BRADLEY INTL   CLOUDY    48  28  46 W15       29.72S
HARTFORD       CLOUDY    47  30  51 SW12      29.74S
DANBURY        CLOUDY    48  28  46 W13G20    29.75S
WTRBRY/OXFORD  CLOUDY    46  27  46 NW12G23   29.75S
BRIDGEPORT     CLOUDY    47  34  60 SW12      29.74F
MERIDEN        CLOUDY    47  32  56 S5        29.74S
NEW HAVEN      CLOUDY    44  32  62 SW9       29.75F
CHESTER        CLOUDY    45  32  61 SW7       29.74F
GROTON         FAIR      44  35  70 SW12      29.76F
WILLIMANTIC    PTSUNNY   47  30  51 W12       29.73F

 IN RI

CITY           SKY/WX    TMP DP  RH WIND       PRES   REMARKS
PROVIDENCE     PTSUNNY   45  33  63 SW9       29.75F
BLOCK ISLAND   CLOUDY    39  34  81 SW16G22   29.76F WCI  30
WESTERLY       PTSUNNY   41  34  76 SW13G23   29.77F

 IN MA

CITY           SKY/WX    TMP DP  RH WIND       PRES   REMARKS
BOSTON         PTSUNNY   44  33  65 SW16      29.72
WORCESTER      CLOUDY    39  28  64 SW12      29.69S WCI  32
WESTFIELD      NOT AVBL
PROVINCETOWN   CLOUDY    39  34  81 SW13      29.75F WCI  32
NANTUCKET      LGT RAIN  39  34  82 SW12      29.78F WCI  32
$$

ANZ330-335-338-340-345-350-353-355-302100-
COASTAL MARINE OBSERVATIONS


STATION/POSITION TIME  SKY/WX   TEMP    WIND        PRES    VSBY  WAVE
                                AIR SEA DIR/SP/G                  HT/PER
                 (UTC)          (F)     (DEG/KT/KT) (MB)    (MI)  (FT/S)
NY HARB ENTRANCE 1950            46 39  260/  8/ 12 1008.1          5/ 7
4S FIRE IS       1903               37                N/A           6/ 7
20S FIRE ISLAND  1850               39              1009.3          6/ 7
23SW MTP         1950                                 N/A           6/ 7
HUDSON CANYON    NOT AVBL
EXECUTION ROCKS  NOT AVBL
WESTERN LI SOUND NOT AVBL
CENTRAL LI SOUND NOT AVBL
EASTERN LI SOUND NOT AVBL
ROBBINS REEF     1900            51     280/ 20/ 25 1007.0
$$


>>>>>>>>>>>>>>>>>>>>>>>>>>>> KEY <<<<<<<<<<<<<<<<<<<<<<<<<<<
>                                                          <
>     SKY/WX - SKY CONDITION/PRESENT WEATHER               <
>     TMP    - TEMPERATURE IN FAHRENHEIT                   <
>     DP     - DEWPOINT IN FAHRENHEIT                      <
>     RH     - RELATIVE HUMIDITY IN PERCENT                <
>     WIND   - DIRECTION AND SPEED IN MPH                  <
>     PRES   - MEAN SEA LEVEL PRESSURE IN INCHES OF HG     <
>     WCI    - WIND CHILL INDEX                            <
>     VSB    - VISIBILITY IN MILES                         <
>     HX     - HEAT INDEX                                  <
>     TC     - TEMPERATURE IN CELSIUS                      <
>     VRB    - VARIABLE WIND DIRECTION                     <
>                                                          <
>>>>>>>>>>>>>>>>>>>>>>>>>>>> KEY <<<<<<<<<<<<<<<<<<<<<<<<<<<




USA.gov is the U.S. government's official web portal to all federal, state and local government web resources and services.